Date String (YYYY-MM-DD hh:mm:ss) UTC,Instrument flags,Ambient pressure (hPa),Sample flow (lpm),Bypass flow (lpm),Sample temperature (°C),Ambient temperature (°C),ASC tube jacket temperature (°C),LED temperature (°C),Box temperature (°C),Sample RH (%),Span deviation,Mass concentration (μg/m³),Mass concentration (μg/m³),Mass concentration (μg/m³)
DateTimeUTC,F1_M11,P_M11,Q1_M11,Q2_M11,T1_M11,T2_M11,T3_M11,T4_M11,T5_M11,U1_M11,ZSPAN_M11,X0_M11,X2_M11,X1_M11
2022-10-19 01:00:00,,0832.7,4.98,0.00,29.9,28.6,00.0,38.6,31.8,11.3,0000.0,0011.91,0004.31,0003.41
2022-10-19 01:01:00,,0832.7,5.01,0.00,29.9,28.6,00.0,38.6,31.7,11.3,0000.0,0012.18,0004.30,0003.40
2022-10-19 01:02:00,,0832.7,5.01,0.00,29.9,28.6,00.0,38.6,31.8,11.3,0000.0,0012.01,0004.24,0003.40
2022-10-19 01:03:00,,0832.7,5.00,0.00,29.9,28.7,00.0,38.7,31.8,11.3,0000.0,0011.34,0004.16,0003.39
2022-10-19 01:04:00,,0832.7,5.00,0.00,30.0,28.7,00.0,38.7,31.8,11.3,0000.0,0011.16,0004.17,0003.39
2022-10-19 01:05:00,,0832.8,5.00,0.00,30.0,28.7,00.0,38.7,31.8,11.3,0000.0,0010.75,0004.16,0003.39
2022-10-19 01:06:00,,0832.7,5.00,0.00,30.0,28.7,00.0,38.7,31.8,11.3,0000.0,0010.25,0004.16,0003.38
2022-10-19 01:07:00,,0832.7,5.00,0.00,30.0,28.7,00.0,38.7,31.8,11.3,0000.0,0010.60,0004.09,0003.37
2022-10-19 01:08:00,,0832.7,5.00,0.00,30.0,28.7,00.0,38.7,31.9,11.3,0000.0,0010.45,0004.07,0003.36
2022-10-19 01:09:00,,0832.7,4.99,0.00,30.0,28.7,00.0,38.7,31.9,11.2,0000.0,0010.67,0004.02,0003.35
2022-10-19 01:10:00,,0832.8,5.00,0.00,30.0,28.7,00.0,38.8,31.9,11.2,0000.0,0011.43,0004.09,0003.35
2022-10-19 01:11:00,,0832.8,4.99,0.00,30.0,28.7,00.0,38.8,31.9,11.2,0000.0,0011.89,0004.10,0003.35
2022-10-19 01:12:00,,0832.8,5.02,0.00,30.0,28.7,00.0,38.8,31.9,11.2,0000.0,0011.55,0004.09,0003.35
2022-10-19 01:13:00,,0832.7,4.98,0.00,30.1,28.7,00.0,38.8,31.9,11.2,0000.0,0011.66,0004.11,0003.34
2022-10-19 01:14:00,,0832.8,5.01,0.00,30.1,28.7,00.0,38.8,31.9,11.2,0000.0,0011.74,0004.14,0003.34
2022-10-19 01:15:00,,0832.8,4.99,0.00,30.1,28.7,00.0,38.8,31.9,11.2,0000.0,0011.57,0004.12,0003.33
2022-10-19 01:16:00,,0832.8,5.01,0.00,30.1,28.7,00.0,38.8,31.9,11.2,0000.0,0011.65,0004.12,0003.32
2022-10-19 01:17:00,,0832.8,5.00,0.00,30.1,28.7,00.0,38.8,31.9,11.1,0000.0,0011.29,0004.12,0003.31
2022-10-19 01:18:00,,0832.8,5.00,0.00,30.1,28.7,00.0,38.8,31.9,11.1,0000.0,0010.86,0004.16,0003.31
2022-10-19 01:19:00,,0832.9,4.98,0.00,30.1,28.7,00.0,38.8,31.9,11.1,0000.0,0011.41,0004.20,0003.31
2022-10-19 01:20:00,,0832.9,5.01,0.00,30.1,28.7,00.0,38.9,31.9,11.1,0000.0,0011.01,0004.21,0003.30
2022-10-19 01:21:00,,0832.8,5.01,0.00,30.1,28.7,00.0,38.9,31.9,11.1,0000.0,0010.24,0004.15,0003.30
2022-10-19 01:22:00,,0832.8,4.99,0.00,30.1,28.7,00.0,38.9,31.9,11.0,0000.0,0009.49,0004.15,0003.30
2022-10-19 01:23:00,,0832.8,5.01,0.00,30.1,28.7,00.0,38.9,31.9,11.0,0000.0,0009.10,0004.18,0003.30
2022-10-19 01:24:00,,0832.8,5.00,0.00,30.1,28.7,00.0,38.9,31.9,11.0,0000.0,0009.14,0004.15,0003.29
2022-10-19 01:25:00,,0832.9,5.00,0.00,30.1,28.7,00.0,38.9,31.9,11.0,0000.0,0009.56,0004.14,0003.29
2022-10-19 01:26:00,,0832.8,5.01,0.00,30.1,28.7,00.0,38.9,31.9,11.0,0000.0,0009.93,0004.18,0003.29
2022-10-19 01:27:00,,0832.8,4.99,0.00,30.1,28.7,00.0,38.9,31.9,11.0,0000.0,0010.43,0004.16,0003.29
2022-10-19 01:28:00,,0832.9,4.99,0.00,30.1,28.7,00.0,38.9,32.0,11.0,0000.0,0010.43,0004.12,0003.29
2022-10-19 01:29:00,,0832.8,5.01,0.00,30.1,28.7,00.0,38.9,31.9,10.9,0000.0,0010.29,0004.10,0003.28
2022-10-19 01:30:00,,0832.9,4.98,0.00,30.1,28.7,00.0,38.9,32.0,10.9,0000.0,0009.88,0004.07,0003.28
2022-10-19 01:31:00,,0832.8,5.02,0.00,30.1,28.7,00.0,38.9,31.9,10.9,0000.0,0009.88,0004.03,0003.28
2022-10-19 01:32:00,,0832.8,4.99,0.00,30.1,28.7,00.0,38.9,31.9,10.8,0000.0,0010.06,0004.02,0003.27
2022-10-19 01:33:00,,0832.8,5.00,0.00,30.1,28.7,00.0,38.9,31.9,10.8,0000.0,0010.53,0003.97,0003.26
2022-10-19 01:34:00,,0832.8,5.01,0.00,30.1,28.7,00.0,38.9,31.9,10.8,0000.0,0010.43,0003.89,0003.24
2022-10-19 01:35:00,,0832.9,4.99,0.00,30.1,28.7,00.0,38.9,31.9,10.8,0000.0,0010.32,0003.89,0003.24
2022-10-19 01:36:00,,0832.8,5.00,0.00,30.1,28.7,00.0,38.9,31.9,10.8,0000.0,0009.90,0003.85,0003.22
2022-10-19 01:37:00,,0832.9,5.01,0.00,30.1,28.7,00.0,38.9,31.9,10.8,0000.0,0010.04,0003.79,0003.20
2022-10-19 01:38:00,,0832.8,4.99,0.00,30.1,28.7,00.0,39.0,31.9,10.8,0000.0,0010.51,0003.79,0003.19
2022-10-19 01:39:00,,0832.8,5.01,0.00,30.1,28.7,00.0,39.0,31.9,10.8,0000.0,0012.12,0003.77,0003.18
2022-10-19 01:40:00,,0832.8,5.01,0.00,30.1,28.7,00.0,39.0,31.9,10.8,0000.0,0012.47,0003.76,0003.18
2022-10-19 01:41:00,,0832.8,4.99,0.00,30.1,28.7,00.0,39.0,31.9,10.8,0000.0,0012.45,0003.74,0003.17
2022-10-19 01:42:00,,0832.8,5.01,0.00,30.1,28.7,00.0,39.0,31.9,10.8,0000.0,0012.38,0003.76,0003.16
2022-10-19 01:43:00,,0832.8,4.98,0.00,30.1,28.7,00.0,39.0,31.9,10.7,0000.0,0012.17,0003.78,0003.15
2022-10-19 01:44:00,,0832.8,5.01,0.00,30.1,28.7,00.0,39.0,31.9,10.7,0000.0,0011.63,0003.79,0003.15
2022-10-19 01:45:00,,0832.8,5.01,0.00,30.1,28.7,00.0,39.0,31.9,10.7,0000.0,0012.08,0003.85,0003.16
2022-10-19 01:46:00,,0832.9,4.98,0.00,30.1,28.6,00.0,39.0,31.9,10.7,0000.0,0012.45,0003.85,0003.15
2022-10-19 01:47:00,,0832.8,5.01,0.00,30.1,28.6,00.0,39.0,31.9,10.7,0000.0,0012.40,0003.86,0003.16
2022-10-19 01:48:00,,0832.8,5.00,0.00,30.2,28.6,00.0,39.0,31.9,10.7,0000.0,0012.10,0003.86,0003.16
2022-10-19 01:49:00,,0832.8,4.99,0.00,30.2,28.6,00.0,39.0,31.9,10.7,0000.0,0011.10,0003.87,0003.15
2022-10-19 01:50:00,,0832.9,5.01,0.00,30.1,28.6,00.0,39.0,31.9,10.6,0000.0,0010.32,0003.88,0003.15
2022-10-19 01:51:00,,0832.9,4.99,0.00,30.1,28.6,00.0,39.0,31.9,10.6,0000.0,0010.91,0003.88,0003.16
2022-10-19 01:52:00,,0832.9,5.01,0.00,30.1,28.6,00.0,39.0,31.9,10.6,0000.0,0010.84,0003.89,0003.16
2022-10-19 01:53:00,,0832.9,5.01,0.00,30.1,28.6,00.0,39.0,31.9,10.6,0000.0,0011.58,0003.88,0003.17
2022-10-19 01:54:00,,0832.8,4.98,0.00,30.1,28.6,00.0,39.0,31.9,10.6,0000.0,0012.00,0003.85,0003.17
2022-10-19 01:55:00,,0832.9,5.00,0.00,30.1,28.6,00.0,39.0,31.9,10.7,0000.0,0012.09,0003.86,0003.16
2022-10-19 01:56:00,,0832.9,5.01,0.00,30.1,28.6,00.0,39.0,31.9,10.6,0000.0,0011.77,0003.86,0003.16
2022-10-19 01:57:00,,0832.9,4.98,0.00,30.1,28.6,00.0,39.0,31.9,10.6,0000.0,0011.23,0003.82,0003.15
2022-10-19 01:58:00,,0832.9,5.00,0.00,30.1,28.6,00.0,39.0,31.9,10.6,0000.0,0011.20,0003.82,0003.15
2022-10-19 01:59:00,,0832.9,5.01,0.00,30.1,28.6,00.0,39.0,31.9,10.6,0000.0,0012.05,0003.85,0003.14
